Regional Weather Roundup
Issued by NWS

Home | Current Version | Previous Version | Graphics & Text | Print | Product List | Glossary On
Versions: 1 2 3 4 5 6 7 8 9 10 11 12 13 14 15 16 17 18 19 20 21 22 23 24 25 26 27 28 29 30 31 32 33 34 35 36 37 38 39 40 41 42 43 44 45 46 47 48 49 50
000
ASUS45 KCYS 221910
RWRWY

WYOMING REGIONAL WEATHER ROUNDUP
NATIONAL WEATHER SERVICE CHEYENNE WY
100 PM MDT SUN OCT 22 2017

NOTE:  "FAIR" INDICATES FEW OR NO CLOUDS BELOW 12,000 FEET
WITH NO SIGNIFICANT WEATHER AND/OR OBSTRUCTIONS TO VISIBILITY.

WYZ001-222000-
YELLOWSTONE NATIONAL PARK

CITY           SKY/WX    TMP DP  RH WIND       PRES   REMARKS
LK YELLOWSTONE   N/A     35  33  92 W12G32    30.17R WCI  27
W YELLOWSTONE  NOT AVBL

$$
WYZ002>013-054>058-071-098>099-222000-
NORTHERN WYOMING

CITY           SKY/WX    TMP DP  RH WIND       PRES   REMARKS
JACKSON        CLOUDY    47  32  56 SW22G29   30.25F
CODY           FAIR      57  33  40 W18G31    30.00S
GREYBULL       FAIR      58  26  29 VRB7      29.98F
WORLAND        FAIR      51  28  41 W5        30.01F
SHERIDAN       FAIR      65  29  25 W10G22    29.87S
BUFFALO        PTSUNNY   64  23  21 VRB3      29.92F
GILLETTE       FAIR      59  27  29 SW23G32   29.91S
HULETT         MOCLDY    61  28  29 SW14G29   29.90F
NEWCASTLE      FAIR      55  23  28 E7        29.97F

$$
WYZ014>020-022>026-101>103-222000-
CENTRAL WYOMING

CITY           SKY/WX    TMP DP  RH WIND       PRES   REMARKS
BIG PINEY      CLOUDY    51  26  37 CALM      30.30F
PINEDALE       CLOUDY    46  28  49 N3        30.31S
DUBOIS         CLOUDY    46  30  53 NW20G31   30.18F
LANDER         FAIR      56  27  32 VRB3      30.09S
RIVERTON       FAIR      54  26  34 CALM      30.08F
CASPER         LGT RAIN  58  27  30 SW30G39   30.08F
DOUGLAS        FAIR      64  27  24 W35G46    30.00F

$$
WYZ021-027>030-104>119-222000-
SOUTHERN WYOMING

CITY           SKY/WX    TMP DP  RH WIND       PRES   REMARKS
EVANSTON       FAIR      54  32  43 SW29G41   30.37F
KEMMERER       FAIR      52  30  43 W36G45    30.31F
FORT BRIDGER   FAIR      55  30  37 W36G48    30.35F
ROCK SPRINGS   FAIR      53  27  36 W30G38    30.29F
DIXON          FAIR      51  24  34 SW20G26   30.38F
RAWLINS        PTSUNNY   54  26  34 SW25G38   30.26F
SARATOGA       FAIR      50  28  43 SW22G28   30.32F
LARAMIE        FAIR      50  22  33 SW31G43   30.19F
CHEYENNE       FAIR      58  24  27 W24G32    30.13F
TORRINGTON     FAIR      63  26  24 W23G33    30.02F
PINE BLUFFS    FAIR      64  25  22 W15G22    30.11F

$$



USA.gov is the U.S. government's official web portal to all federal, state and local government web resources and services.